Record,Date/Time,10,Tamb(K),Rh(%),Pres(mb),Tir(K),Rain,Az(deg),El(deg),TkBB(K), Ch  22.234, Ch  23.034, Ch  23.834, Ch  26.234, Ch  30.000, Ch  51.248, Ch  52.280, Ch  53.848, Ch  54.940, Ch  56.660, Ch  57.288, Ch  58.800, Ch 
Record,Date/Time,40,Tamb(K),Rh(%),Pres(mb),Tir(K),Rain
Record,Date/Time,50,Az(deg),El(deg),TkBB(K), Ch  22.000, Ch  22.234, Ch  22.500, Ch  23.000, Ch  23.034, Ch  23.500, Ch  23.834, Ch  24.000, Ch  24.500, Ch  25.000, Ch  25.500, Ch  26.000, Ch  26.234, Ch  26.500, Ch  27.000, Ch  27.500, Ch  28.000, Ch  28.500, Ch  29.000, Ch  29.500, Ch  30.000, Ch  51.248, Ch  51.760, Ch  52.280, Ch  52.804, Ch  53.336, Ch  53.848, Ch  54.400, Ch  54.940, Ch  55.500, Ch  56.020, Ch  56.660, Ch  57.288, Ch  57.964, Ch  58.800, Ch 
Record,Date/Time,80,ID,SNR,Tamb(K),Rh(%),Pres(mb),Tir(K),Rain,Az(deg),El(deg),TkBB(K), Ch  22.234, Ch  23.034, Ch  23.834, Ch  26.234, Ch  30.000, Ch  51.248, Ch  52.280, Ch  53.848, Ch  54.940, Ch  56.660, Ch  57.288, Ch  58.800, Ch 
     1,08/05/18 00:00:35,41, 289.5380,  69.7600,1011.9360, 222.8800,1
     2,08/05/18 00:01:12,51,  0.00, 19.80,301.436, 97.579,101.068,101.508, 97.005,, 88.358, 83.204, 81.448, 73.584, 65.752, 61.643, 56.480,,, 52.744,, 49.067,, 47.917,, 49.334,223.422,243.678,264.294,281.609,291.075,294.692,294.243,293.593,291.998,290.554,290.101,288.190,289.280,289.745,
     3,08/05/18 00:01:31,51,  0.00, 90.00,301.456, 39.973, 41.464, 41.827, 39.685,, 35.565, 33.329, 32.960, 29.941, 26.447, 24.699, 22.534,,, 22.232,, 20.431,, 20.670,, 20.809,112.211,130.960,156.553,190.270,228.421,262.742,285.204,292.592,294.321,293.399,293.387,290.330,292.900,292.815,
     4,08/05/18 00:01:49,51,  0.00,160.20,301.495, 89.708, 93.677, 93.312, 88.933,, 80.886, 76.040, 73.992, 67.045, 59.931, 55.610, 51.406,,, 48.025,, 44.825,, 43.747,, 44.968,211.393,232.927,255.994,276.565,289.760,294.998,296.329,295.920,294.470,292.784,292.045,289.650,291.382,291.304,
     5,08/05/18 00:02:13,41, 289.6240,  70.1200,1011.7580, 223.1300,1
     6,08/05/18 00:02:50,51,  0.00, 19.80,301.505, 97.681,101.296,101.204, 96.310,, 87.836, 83.334, 80.748, 73.412, 65.691, 61.502, 56.075,,, 52.977,, 49.091,, 48.402,, 48.734,223.223,243.366,264.495,281.351,291.483,294.790,294.892,294.014,292.761,289.995,289.632,287.761,289.017,289.117,
     7,08/05/18 00:03:09,51,  0.00, 90.00,301.513, 40.074, 41.924, 42.289, 39.755,, 35.546, 33.854, 32.651, 29.743, 26.538, 25.382, 22.595,,, 22.149,, 20.345,, 20.418,, 20.274,112.116,130.484,156.603,190.298,228.567,263.009,284.879,292.540,294.768,292.725,293.315,290.212,292.933,292.980,
     8,08/05/18 00:03:28,51,  0.00,160.20,301.523, 90.482, 94.382, 94.308, 89.625,, 81.598, 76.504, 74.179, 67.400, 60.549, 55.987, 51.327,,, 48.125,, 44.718,, 44.436,, 44.878,211.691,232.547,256.136,277.024,290.106,295.047,296.462,296.086,294.585,292.493,291.913,289.797,291.020,291.467,
     9,08/05/18 00:03:51,41, 289.6090,  69.9000,1011.7740, 222.9300,1
    10,08/05/18 00:04:28,51,  0.00, 19.80,301.533, 96.635,100.867,100.865, 96.124,, 88.880, 83.426, 80.697, 73.358, 65.851, 61.469, 55.802,,, 52.765,, 48.969,, 47.198,, 48.391,223.507,242.984,264.567,281.216,290.760,294.318,294.686,293.739,292.588,290.246,289.945,288.626,289.694,289.555,
    11,08/05/18 00:04:47,51,  0.00, 90.00,301.522, 39.489, 41.807, 41.837, 39.708,, 35.909, 33.683, 32.603, 29.988, 26.531, 24.778, 22.381,,, 21.829,, 20.386,, 20.074,, 20.194,112.566,130.407,156.823,190.189,228.091,262.668,285.095,292.606,294.846,293.165,293.115,290.447,292.574,293.221,
    12,08/05/18 00:05:06,51,  0.00,160.20,301.581, 89.304, 93.421, 92.705, 88.304,, 81.272, 75.814, 73.798, 66.781, 60.026, 55.477, 50.532,,, 47.763,, 44.459,, 43.422,, 44.552,211.685,232.352,256.191,276.533,289.488,294.878,296.378,295.789,294.577,292.452,291.755,290.132,291.518,291.201,
    13,08/05/18 00:05:30,41, 289.6520,  69.1200,1011.7300, 222.3300,1
    14,08/05/18 00:06:07,51,  0.00, 19.80,301.561, 97.711,100.917,100.642, 96.212,, 88.535, 83.200, 80.867, 73.467, 66.028, 61.133, 55.565,,, 52.494,, 49.234,, 47.921,, 49.071,223.416,243.046,264.070,281.344,290.497,294.083,294.612,293.913,292.195,290.384,289.804,288.643,289.593,289.772,
    15,08/05/18 00:06:26,51,  0.00, 90.00,301.577, 40.539, 41.649, 41.115, 39.384,, 36.039, 33.306, 32.824, 30.053, 26.810, 24.755, 22.546,,, 21.714,, 20.401,, 20.607,, 20.755,112.048,130.594,156.502,189.972,228.077,262.683,284.751,292.316,294.462,293.183,293.121,290.187,292.879,293.630,
    16,08/05/18 00:06:44,51,  0.00,160.20,301.592, 90.316, 93.671, 92.998, 89.088,, 81.187, 75.866, 73.773, 66.842, 60.246, 55.428, 50.915,,, 47.612,, 44.901,, 44.005,, 44.637,211.561,232.204,255.590,276.247,289.521,294.715,295.600,295.612,294.188,292.048,291.350,289.601,290.783,290.960,
    17,08/05/18 00:07:08,41, 289.7060,  68.7700,1011.5280, 222.8500,1
    18,08/05/18 00:07:45,51,  0.00, 19.80,301.585, 97.427,100.923,101.012, 95.951,, 88.359, 83.264, 80.985, 73.451, 66.156, 61.620, 56.218,,, 52.606,, 49.128,, 47.860,, 48.438,223.840,243.245,263.885,281.037,291.195,294.113,293.974,294.074,292.552,289.960,289.933,287.736,288.843,288.913,
    19,08/05/18 00:08:04,51,  0.00, 90.00,301.607, 40.177, 41.139, 41.396, 39.174,, 35.572, 33.266, 32.549, 29.621, 26.565, 24.624, 22.806,,, 21.692,, 20.251,, 19.948,, 20.444,112.479,130.281,156.702,190.472,229.049,262.746,284.541,292.894,295.177,293.148,294.044,289.934,292.939,291.956,
    20,08/05/18 00:08:23,51,  0.00,160.20,301.599, 90.689, 94.228, 93.711, 89.206,, 81.578, 76.648, 73.804, 67.097, 60.990, 56.040, 51.480,,, 48.391,, 45.291,, 43.636,, 44.884,211.804,232.531,256.003,276.525,289.866,294.708,295.792,296.013,295.036,292.320,292.102,289.146,290.636,290.479,
    21,08/05/18 00:08:46,41, 289.5810,  69.7300,1011.7540, 223.0400,1
    22,08/05/18 00:09:23,51,  0.00, 19.80,301.575, 97.637,100.984,100.941, 96.349,, 88.966, 83.971, 81.046, 73.538, 65.783, 61.716, 56.334,,, 52.819,, 49.511,, 47.579,, 49.033,223.534,243.764,264.136,281.436,290.703,294.615,295.209,293.892,292.955,290.275,290.232,288.187,289.279,289.870,
    23,08/05/18 00:09:42,51,  0.00, 90.00,301.596, 40.051, 41.641, 41.402, 39.119,, 36.144, 33.516, 32.548, 30.108, 26.283, 24.685, 22.687,,, 21.689,, 20.345,, 20.325,, 20.658,112.403,131.179,157.140,190.657,228.435,263.394,285.017,293.188,295.215,293.210,293.816,290.359,293.070,292.758,
    24,08/05/18 00:10:01,51,  0.00,160.20,301.611, 90.316, 93.663, 93.237, 88.777,, 81.455, 76.217, 73.627, 67.191, 60.338, 55.981, 50.987,,, 47.737,, 44.574,, 43.278,, 45.053,211.370,232.545,255.923,276.695,289.639,295.328,296.658,295.795,295.576,293.210,292.322,289.943,290.968,291.040,
    25,08/05/18 00:10:25,41, 289.6400,  69.4900,1011.7680, 222.8000,1
    26,08/05/18 00:11:02,51,  0.00, 19.80,301.595, 97.357,100.685,100.429, 96.218,, 88.306, 83.074, 80.889, 73.622, 65.609, 61.790, 55.784,,, 52.627,, 49.077,, 47.935,, 48.823,223.389,242.891,263.861,281.219,291.256,293.967,294.347,293.605,292.119,289.948,289.744,287.709,288.741,289.164,
    27,08/05/18 00:11:21,51,  0.00, 90.00,301.606, 40.471, 41.248, 41.472, 39.373,, 35.694, 32.960, 32.817, 29.770, 26.132, 24.948, 22.422,,, 21.678,, 20.101,, 20.391,, 20.634,112.057,130.143,156.438,190.236,228.903,262.797,284.869,292.807,294.751,293.322,293.548,289.946,292.757,292.639,
    28,08/05/18 00:11:39,51,  0.00,160.20,301.573, 90.403, 93.895, 93.226, 88.278,, 81.397, 75.732, 74.043, 66.527, 60.267, 55.341, 50.713,,, 47.823,, 44.657,, 43.980,, 44.644,211.292,231.874,255.831,276.792,289.995,294.779,296.296,295.334,294.601,292.426,291.979,289.359,290.508,291.243,
    29,08/05/18 00:12:02,41, 289.6240,  68.9400,1011.7320, 222.3600,1
    30,08/05/18 00:12:40,51,  0.00, 19.80,301.633, 97.204,100.638,100.046, 96.190,, 87.794, 83.299, 80.781, 73.022, 65.860, 61.230, 56.133,,, 52.694,, 49.316,, 47.829,, 48.532,223.256,242.902,264.331,281.371,291.124,294.263,294.453,294.452,292.667,290.887,289.881,288.343,289.254,289.160,
    31,08/05/18 00:12:58,51,  0.00, 90.00,301.608, 40.519, 42.106, 41.320, 39.480,, 35.217, 33.482, 32.660, 30.134, 27.028, 25.052, 22.379,,, 21.685,, 20.491,, 20.250,, 20.641,111.777,130.303,156.742,190.175,228.638,262.881,284.467,292.849,294.481,293.296,293.694,290.058,293.006,292.764,
    32,08/05/18 00:13:17,51,  0.00,160.20,301.668, 90.247, 93.826, 93.149, 88.850,, 80.664, 76.339, 73.701, 66.668, 60.399, 55.533, 50.806,,, 47.574,, 44.544,, 43.683,, 44.219,211.292,232.120,255.839,276.684,290.261,294.867,296.265,296.154,294.665,292.350,291.734,290.117,290.768,290.420,
    33,08/05/18 00:13:41,41, 289.5660,  69.5400,1011.6200, 222.6400,1
    34,08/05/18 00:14:18,51,  0.00, 19.80,301.646, 97.141,100.584,100.381, 96.157,, 88.357, 83.064, 80.366, 73.175, 65.721, 61.037, 55.525,,, 52.397,, 49.024,, 47.520,, 49.401,223.639,243.144,264.052,281.124,290.777,294.378,294.704,293.565,292.433,290.477,289.794,287.896,288.483,289.432,
    35,08/05/18 00:14:37,51,  0.00, 90.00,301.639, 39.972, 41.511, 41.291, 39.246,, 36.047, 33.593, 32.210, 29.855, 26.289, 24.703, 21.997,,, 21.470,, 19.916,, 19.914,, 20.794,112.262,130.569,156.759,189.828,228.032,262.850,285.256,292.598,295.007,293.033,293.303,290.032,292.705,293.099,
    36,08/05/18 00:14:56,51,  0.00,160.20,301.626, 90.246, 93.905, 93.390, 88.942,, 81.439, 76.369, 73.749, 66.718, 59.929, 55.338, 50.849,,, 47.450,, 44.394,, 43.175,, 44.937,211.544,232.363,255.965,276.617,289.719,294.963,295.881,295.839,295.080,292.206,291.927,290.010,291.044,290.980,
    37,08/05/18 00:15:20,41, 289.5970,  69.7600,1011.7640, 221.9800,1
    38,08/05/18 00:15:57,51,  0.00, 19.80,301.607, 96.416, 99.989, 99.864, 95.685,, 87.557, 82.723, 80.209, 73.078, 65.672, 61.091, 55.431,,, 52.251,, 48.935,, 47.303,, 48.355,223.357,243.221,263.917,281.519,291.435,294.504,294.646,293.994,293.190,291.274,290.474,288.456,289.177,289.643,
    39,08/05/18 00:16:16,51,  0.00, 90.00,301.601, 39.863, 41.250, 40.636, 39.515,, 36.036, 33.880, 32.534, 30.466, 26.738, 24.905, 22.756,,, 22.163,, 20.718,, 20.468,, 20.919,112.246,130.511,156.651,190.605,228.682,262.789,284.421,292.863,295.260,293.741,294.193,290.326,292.892,293.393,
    40,08/05/18 00:16:34,51,  0.00,160.20,301.627, 89.771, 93.468, 92.806, 89.147,, 81.192, 75.972, 73.649, 66.632, 60.100, 55.716, 51.028,,, 47.746,, 44.700,, 43.496,, 44.828,211.003,232.304,255.283,276.550,289.949,294.984,295.932,295.719,295.003,293.369,292.422,289.947,290.867,291.561,
    41,08/05/18 00:16:58,41, 289.7060,  69.6700,1011.7940, 222.2400,1
    42,08/05/18 00:17:35,51,  0.00, 19.80,301.640, 97.138,100.438, 99.946, 95.676,, 88.030, 83.188, 80.193, 72.938, 65.341, 61.093, 55.316,,, 52.619,, 48.890,, 47.033,, 48.457,223.047,243.536,264.301,281.589,291.466,294.496,294.504,294.385,293.556,291.639,290.362,289.004,289.996,289.613,
    43,08/05/18 00:17:54,51,  0.00, 90.00,301.627, 39.679, 41.475, 41.118, 39.144,, 35.831, 33.492, 32.248, 29.565, 26.220, 24.628, 22.028,,, 21.796,, 19.990,, 20.396,, 20.623,111.717,130.561,156.472,190.387,228.801,262.742,284.708,292.931,295.189,293.883,293.763,290.635,293.097,293.097,
    44,08/05/18 00:18:13,51,  0.00,160.20,301.625, 90.172, 93.894, 93.162, 88.858,, 81.200, 76.207, 73.686, 66.244, 60.167, 55.745, 50.664,,, 48.017,, 44.225,, 43.796,, 44.187,211.160,232.188,255.939,276.944,290.512,295.031,295.843,295.897,294.824,292.787,292.016,289.713,290.816,291.251,
    45,08/05/18 00:18:37,41, 289.5110,  69.9200,1011.7040, 222.2900,1
    46,08/05/18 00:19:14,51,  0.00, 19.80,301.643, 96.596,100.048, 99.726, 95.835,, 87.448, 82.906, 80.359, 73.074, 65.268, 61.119, 55.927,,, 52.428,, 48.666,, 47.029,, 48.597,223.246,242.878,263.991,282.157,291.781,294.959,294.698,294.285,293.578,291.168,290.751,288.951,290.310,288.899,
    47,08/05/18 00:19:33,51,  0.00, 90.00,301.640, 39.844, 41.157, 41.180, 38.925,, 35.313, 33.351, 32.532, 29.350, 26.226, 25.174, 22.304,,, 21.635,, 19.980,, 20.206,, 20.369,112.284,130.390,156.319,190.417,228.355,262.860,284.455,292.733,295.448,293.340,294.030,291.082,293.834,292.519,
    48,08/05/18 00:19:52,51,  0.00,160.20,301.639, 90.080, 93.662, 92.971, 88.488,, 81.053, 76.090, 74.094, 66.605, 59.894, 55.908, 50.997,,, 47.921,, 44.229,, 43.492,, 44.828,211.558,232.285,255.471,277.028,289.539,295.224,296.304,295.981,295.181,292.351,292.206,289.792,291.185,290.256,
    49,08/05/18 00:20:15,41, 289.4840,  69.9000,1011.5540, 222.3300,1
    50,08/05/18 00:20:52,51,  0.00, 19.80,301.583, 96.798,100.592, 99.998, 95.422,, 88.029, 82.942, 80.261, 72.858, 65.835, 61.635, 55.876,,, 52.221,, 48.970,, 47.415,, 48.930,223.395,243.238,264.062,281.622,291.512,294.686,294.738,294.016,292.852,291.395,290.868,288.191,289.377,290.010,
    51,08/05/18 00:21:11,51,  0.00, 90.00,301.625, 40.566, 42.169, 41.705, 39.351,, 36.179, 33.275, 32.980, 30.048, 26.645, 24.907, 22.827,,, 21.567,, 20.024,, 20.274,, 20.758,111.968,130.654,156.766,190.352,228.356,262.622,284.554,292.652,294.578,293.537,293.917,290.301,292.958,293.048,
    52,08/05/18 00:21:30,51,  0.00,160.20,301.618, 90.507, 94.335, 93.802, 88.976,, 81.406, 76.224, 74.006, 66.904, 60.649, 55.770, 50.959,,, 48.030,, 44.268,, 43.604,, 44.120,211.210,232.419,255.717,276.558,290.247,295.107,296.150,295.578,294.943,292.573,292.232,289.840,290.864,291.180,
    53,08/05/18 00:21:54,41, 289.4290,  70.4000,1011.6300, 222.5700,1
    54,08/05/18 00:22:31,51,  0.00, 19.80,301.598, 96.544,100.093, 99.797, 95.052,, 88.151, 82.482, 80.488, 72.744, 65.526, 61.337, 55.721,,, 52.086,, 48.760,, 47.365,, 48.126,223.185,243.152,264.188,281.419,291.392,294.474,295.086,294.510,293.179,291.046,291.438,289.094,289.835,290.092,
    55,08/05/18 00:22:50,51,  0.00, 90.00,301.629, 39.796, 41.605, 41.341, 39.131,, 35.662, 33.426, 32.275, 30.252, 26.786, 24.674, 22.157,,, 21.673,, 20.139,, 20.525,, 20.793,111.851,130.750,156.637,190.107,228.614,262.655,285.378,293.250,294.711,293.411,294.111,290.810,292.817,293.376,
    56,08/05/18 00:23:08,51,  0.00,160.20,301.605, 90.453, 93.825, 93.387, 88.554,, 81.294, 76.069, 73.886, 66.642, 60.155, 55.267, 50.974,,, 47.560,, 44.639,, 43.688,, 44.459,211.350,232.404,255.907,276.754,290.087,295.301,296.727,296.446,295.488,292.719,292.890,290.312,290.816,291.691,
    57,08/05/18 00:23:32,41, 289.4130,  69.9000,1011.7580, 222.4200,1
    58,08/05/18 00:24:09,51,  0.00, 19.80,301.582, 96.019, 99.226, 99.109, 95.198,, 87.187, 82.466, 79.512, 72.412, 65.029, 60.679, 55.501,,, 52.041,, 49.044,, 47.510,, 48.610,223.143,243.274,263.688,281.521,291.198,294.417,294.692,294.066,292.910,291.104,290.527,288.276,289.982,289.716,
    59,08/05/18 00:24:28,51,  0.00, 90.00,301.576, 39.975, 41.276, 41.374, 39.345,, 35.695, 33.336, 32.180, 29.708, 26.433, 24.764, 22.483,,, 21.748,, 20.526,, 20.804,, 20.966,112.016,130.541,156.242,190.857,228.837,262.682,284.836,292.423,294.851,293.101,293.807,290.356,293.537,293.035,
    60,08/05/18 00:24:47,51,  0.00,160.20,301.569, 90.096, 93.581, 92.828, 88.665,, 81.130, 76.212, 73.533, 66.533, 60.535, 55.236, 50.697,,, 47.697,, 44.387,, 43.702,, 44.967,211.151,232.203,255.577,276.472,289.705,295.076,295.855,295.449,294.773,292.266,292.247,289.772,291.483,290.700,
    61,08/05/18 00:25:11,41, 289.3740,  70.7400,1011.5780, 222.5200,1
    62,08/05/18 00:25:49,51,  0.00, 19.80,301.536, 96.293, 99.593, 99.528, 94.970,, 87.486, 82.379, 79.604, 72.231, 64.924, 61.020, 55.240,,, 51.950,, 48.985,, 47.429,, 48.694,223.376,243.153,263.850,281.216,291.199,294.552,294.757,294.057,292.866,290.470,290.589,288.081,289.508,289.352,
    63,08/05/18 00:26:07,51,  0.00, 90.00,301.565, 39.619, 41.288, 41.315, 38.925,, 35.647, 33.176, 32.289, 29.464, 25.865, 25.073, 22.028,,, 21.212,, 20.431,, 20.227,, 20.384,111.845,130.525,156.796,190.402,228.806,262.716,284.944,292.966,295.246,293.342,294.433,290.291,292.968,293.085,
    64,08/05/18 00:26:26,51,  0.00,160.20,301.529, 90.426, 94.224, 93.838, 89.249,, 81.279, 76.317, 73.750, 66.453, 60.007, 55.502, 50.638,,, 47.701,, 44.867,, 43.674,, 44.312,211.407,232.352,255.737,276.229,289.809,294.776,295.774,295.731,294.785,292.193,292.024,289.706,290.609,291.456,
    65,08/05/18 00:26:50,41, 289.4840,  70.4400,1011.4420, 221.7400,1
    66,08/05/18 00:27:27,51,  0.00, 19.80,301.525, 95.504, 99.191, 98.923, 94.800,, 87.294, 82.011, 79.181, 72.375, 64.805, 60.297, 54.928,,, 51.736,, 48.728,, 46.677,, 48.042,223.139,242.980,264.132,281.271,290.840,294.363,294.492,294.125,292.460,290.990,289.990,288.322,289.153,288.653,
    67,08/05/18 00:27:46,51,  0.00, 90.00,301.548, 39.622, 41.043, 41.170, 39.613,, 35.725, 33.600, 32.171, 29.746, 26.020, 24.893, 22.222,,, 21.956,, 20.115,, 20.103,, 20.994,112.042,130.524,156.833,190.536,228.785,263.067,285.076,293.505,294.869,293.469,293.924,290.851,292.891,292.821,
    68,08/05/18 00:28:04,51,  0.00,160.20,301.531, 90.095, 94.060, 93.231, 89.251,, 81.508, 75.918, 73.418, 66.205, 60.005, 55.718, 50.736,,, 47.567,, 44.218,, 43.386,, 44.274,211.726,232.256,256.015,276.894,289.968,295.236,296.829,296.336,295.321,293.123,292.191,290.131,291.043,290.679,
    69,08/05/18 00:28:29,41, 289.1790,  72.2000,1011.6840, 223.0100,1
    70,08/05/18 00:29:06,51,  0.00, 19.80,301.502, 95.846, 99.190, 98.999, 94.916,, 87.120, 81.925, 79.736, 72.470, 65.027, 60.879, 55.311,,, 52.306,, 48.815,, 47.168,, 47.749,223.143,243.329,264.482,281.609,290.909,294.293,294.718,293.908,292.457,290.468,290.343,288.898,289.400,289.884,
    71,08/05/18 00:29:24,51,  0.00, 90.00,301.496, 39.704, 41.158, 41.204, 38.785,, 35.374, 33.305, 32.554, 29.659, 26.502, 25.013, 21.993,,, 21.340,, 20.591,, 20.324,, 20.404,111.934,130.753,156.662,190.287,228.292,262.681,285.266,293.109,295.350,293.745,293.648,291.444,293.408,293.105,
    72,08/05/18 00:29:43,51,  0.00,160.20,301.509, 90.538, 94.562, 94.028, 89.481,, 81.674, 76.356, 73.914, 67.435, 60.877, 56.010, 51.234,,, 48.039,, 44.548,, 43.608,, 44.534,211.544,232.726,256.180,276.715,290.031,295.324,296.148,296.133,294.804,292.592,292.090,289.631,290.870,290.633,
    73,08/05/18 00:30:08,41, 289.1910,  71.7200,1011.6880, 221.9000,1
    74,08/05/18 00:30:45,51,  0.00, 19.80,301.461, 95.526, 99.401, 98.989, 94.430,, 87.119, 81.927, 80.059, 72.326, 64.843, 60.881, 55.313,,, 51.989,, 48.331,, 47.317,, 48.507,223.181,243.202,264.377,281.598,291.389,294.820,294.501,294.287,292.929,291.049,291.078,288.562,289.954,290.193,
    75,08/05/18 00:31:04,51,  0.00, 90.00,301.442, 39.133, 40.966, 40.971, 39.010,, 35.860, 33.413, 32.345, 29.609, 25.891, 24.865, 22.091,,, 21.493,, 19.863,, 20.046,, 20.310,112.037,130.879,156.978,190.786,228.361,262.667,284.791,293.420,295.039,294.039,294.547,291.080,293.621,294.104,
    76,08/05/18 00:31:23,51,  0.00,160.20,301.460, 90.201, 94.422, 93.838, 89.256,, 81.458, 76.006, 74.169, 66.606, 60.118, 55.525, 51.012,,, 47.563,, 44.233,, 43.298,, 44.186,211.471,232.626,256.076,276.752,289.741,295.392,296.236,296.203,295.204,293.576,292.942,290.443,291.521,291.989,
    77,08/05/18 00:31:47,41, 289.2610,  70.3300,1011.5820, 222.5000,1
    78,08/05/18 00:32:24,51,  0.00, 19.80,301.421, 95.301, 98.501, 98.558, 94.133,, 86.715, 81.675, 79.033, 72.367, 64.681, 60.331, 55.097,,, 51.808,, 48.589,, 47.222,, 48.422,223.111,243.450,264.387,281.699,291.104,294.670,294.991,294.213,293.324,291.542,290.797,288.723,290.040,289.682,
    79,08/05/18 00:32:42,51,  0.00, 90.00,301.410, 39.521, 40.649, 40.796, 38.671,, 35.077, 33.543, 32.179, 30.259, 26.275, 24.496, 22.615,,, 21.926,, 20.021,, 20.655,, 20.905,112.129,130.873,156.719,190.872,228.342,262.488,284.728,292.460,294.872,294.008,293.854,289.940,293.089,292.389,
    80,08/05/18 00:33:01,51,  0.00,160.20,301.437, 90.849, 94.867, 94.294, 89.478,, 81.932, 76.709, 74.374, 67.455, 60.441, 55.723, 51.231,,, 48.105,, 45.143,, 43.931,, 44.870,211.414,232.405,256.073,277.188,289.775,295.062,296.305,295.698,294.962,292.868,292.028,289.395,291.091,290.860,
    81,08/05/18 00:33:25,41, 289.4020,  70.5300,1011.6300, 222.4200,1
    82,08/05/18 00:34:02,51,  0.00, 19.80,301.409, 95.689, 99.239, 98.875, 94.320,, 86.590, 82.195, 79.512, 71.907, 64.833, 60.431, 55.003,,, 51.617,, 48.695,, 47.421,, 48.349,223.194,243.240,264.090,281.463,290.866,294.355,294.653,294.584,292.793,290.871,290.230,288.382,289.321,289.864,
    83,08/05/18 00:34:21,51,  0.00, 90.00,301.410, 39.468, 40.937, 40.719, 38.918,, 35.307, 33.340, 32.420, 29.209, 26.098, 24.935, 22.012,,, 21.362,, 20.042,, 19.981,, 20.382,112.081,130.748,156.801,190.520,228.423,262.758,284.923,293.111,294.569,293.255,293.387,290.446,293.190,293.014,
    84,08/05/18 00:34:40,51,  0.00,160.20,301.452, 91.149, 94.688, 94.327, 89.333,, 81.799, 76.784, 74.052, 66.749, 60.340, 55.999, 50.782,,, 47.971,, 44.743,, 43.612,, 45.267,211.789,232.458,255.715,276.849,289.577,294.709,295.850,296.175,295.206,293.137,292.311,290.271,291.481,291.033,
    85,08/05/18 00:35:04,41, 289.4410,  69.3600,1011.4380, 222.3200,1
    86,08/05/18 00:35:41,51,  0.00, 19.80,301.393, 95.543, 98.488, 98.291, 93.821,, 86.142, 81.624, 78.875, 71.381, 64.413, 60.280, 55.103,,, 51.747,, 48.284,, 47.064,, 47.930,222.685,242.579,264.086,281.462,291.278,295.169,294.817,294.184,293.635,291.433,290.894,289.401,289.790,290.691,
    87,08/05/18 00:36:00,51,  0.00, 90.00,301.427, 39.379, 40.623, 40.181, 38.988,, 35.156, 33.062, 31.750, 29.412, 26.276, 24.490, 22.535,,, 21.533,, 20.017,, 20.047,, 19.445,111.871,130.004,156.789,189.916,228.552,262.702,284.519,292.520,294.929,293.158,293.580,291.147,293.102,292.959,
    88,08/05/18 00:36:18,51,  0.00,160.20,301.418, 90.923, 94.408, 93.786, 89.588,, 81.680, 76.005, 73.642, 66.488, 59.885, 55.617, 51.149,,, 47.717,, 44.603,, 43.421,, 44.259,211.015,232.137,255.992,276.663,289.733,295.607,296.470,296.082,295.521,292.704,292.253,290.931,291.514,291.970,
    89,08/05/18 00:36:43,41, 289.5380,  69.4400,1011.5440, 222.4800,1
    90,08/05/18 00:37:20,51,  0.00, 19.80,301.462, 94.707, 98.178, 97.793, 93.687,, 86.220, 81.580, 78.944, 71.450, 64.407, 60.191, 55.121,,, 51.422,, 48.460,, 47.193,, 48.061,223.375,243.029,264.201,281.836,291.367,295.018,295.071,295.052,294.071,291.352,291.248,289.306,290.161,290.444,
    91,08/05/18 00:37:39,51,  0.00, 90.00,301.385, 39.440, 40.953, 40.508, 38.877,, 35.429, 33.022, 31.985, 29.573, 26.363, 24.448, 22.657,,, 21.342,, 19.961,, 20.702,, 20.480,112.359,130.519,156.697,190.092,228.151,262.243,284.639,293.165,295.154,293.493,294.430,290.668,293.266,293.185,
    92,08/05/18 00:37:58,51,  0.00,160.20,301.451, 91.566, 95.271, 94.425, 89.802,, 82.248, 76.809, 74.106, 66.515, 60.415, 56.234, 51.489,,, 47.806,, 44.838,, 44.113,, 45.283,211.394,232.360,255.837,276.558,289.644,294.665,295.353,295.715,294.874,292.406,292.268,289.864,290.668,290.920,
    93,08/05/18 00:38:22,41, 289.5660,  69.2200,1011.5500, 222.7100,1
    94,08/05/18 00:38:59,51,  0.00, 19.80,301.394, 94.685, 98.043, 97.754, 94.040,, 86.815, 81.272, 78.907, 71.652, 64.511, 60.127, 55.027,,, 51.801,, 47.779,, 47.100,, 47.725,222.811,242.654,263.873,281.501,291.435,294.591,295.040,294.474,293.399,291.213,291.186,288.838,290.240,289.716,
    95,08/05/18 00:39:18,51,  0.00, 90.00,301.451, 39.154, 40.597, 40.392, 38.718,, 35.591, 33.094, 32.125, 29.726, 26.402, 24.304, 22.586,,, 21.764,, 19.967,, 20.339,, 20.776,111.664,129.895,156.390,190.246,228.318,262.665,284.678,292.705,294.935,292.978,293.982,290.493,292.481,293.267,
    96,08/05/18 00:39:36,51,  0.00,160.20,301.450, 90.493, 94.671, 94.081, 89.700,, 82.252, 76.973, 74.232, 67.080, 60.216, 55.825, 50.921,,, 48.100,, 44.413,, 43.940,, 44.807,210.977,231.930,255.634,276.344,289.465,295.130,295.913,295.888,294.652,292.524,292.350,289.504,290.633,290.571,
    97,08/05/18 00:40:00,41, 289.6240,  68.8700,1011.5660, 222.5100,1
    98,08/05/18 00:40:37,51,  0.00, 19.80,301.451, 94.840, 98.214, 97.815, 93.585,, 85.885, 81.290, 79.012, 71.887, 64.590, 60.547, 54.704,,, 51.500,, 48.554,, 46.953,, 47.848,223.050,242.673,263.756,281.575,291.096,294.816,294.546,294.322,293.428,290.725,291.317,289.458,289.907,289.472,